Location: Melbourne
(37.8120°S, 144.9677°E)
Time: 07:11:42
(UTC+10:00)

ISS - Visible Passes

Search period start: 24 July 2016 00:00
Search period end: 03 August 2016 00:00
Orbit: 401 x 404 km, 51.6° (Epoch: 23 July)

Date Brightness Start Highest point End Pass type
(mag) Time Alt. Az. Time Alt. Az. Time Alt. Az.
24 Jul -0.1 18:20:32 10° W 18:22:30 15° NW 18:24:30 10° NNW visible
30 Jul 0.2 06:35:11 10° NNE 06:36:23 12° NE 06:37:35 10° ENE visible
01 Aug -1.1 06:23:48 10° NNW 06:26:41 28° NE 06:29:35 10° ESE visible
02 Aug -0.2 05:32:06 10° NNE 05:33:56 14° NE 05:35:48 10° E visible
